カタログに戻る

STARLINK-4753

運用中通信VLEO
NORAD 53845·PAYLOAD·🇺🇸 United States

打ち上げ Sep 19, 2022 から Cape Canaveral Space Force Station

Loading…

次のパス (今後24時間)

TLE

最新Source: CelesTrak SupGP

元期: Sep 15, 2026, 02:32 UTC

1 53845C 22114AD  26258.10604167  .00262290  00000+0  14786-1 0  2588
2 53845  53.1595 163.1002 0001359  82.7911  84.9176 15.12555880    10

AllMySatでSTARLINK-4753をリアルタイム追跡

Download on the App Store